Location: Saluda
(35.2377°N, 82.3468°W)
Time: 05:31:51
(UTC+00:00)

Vanguard 2 - Pass Details

Date: 12 October 2022
Orbit: 553 x 2933 km, 32.9° (Epoch: 04 December)

Event Time Altitude Azimuth Distance (km) Brightness Sun altitude
Rises 19:23:18 0° 277° (W) 4,429 11.8 37.7°
Reaches altitude 10° 19:25:49 10° 275° (W) 3,714 11.6 37.3°
Maximum altitude 19:36:01 68° 195° (SSW) 2,272 11.0 35.9°
Drops below altitude 10° 19:52:06 10° 117° (ESE) 5,590 11.8 33.5°
Sets 19:56:51 0° 115° (ESE) 6,732 12.1 32.8°
